Other Public Products
Issued by NWS Grand Forks, ND

Home | Current Version | Previous Version | Text Only | Print | Product List | Glossary Off
Versions: 1 2 3 4 5 6 7 8 9 10 11 12 13 14 15 16 17 18 19 20 21 22 23 24 25 26 27 28 29 30 31 32 33 34 35 36 37 38 39 40 41 42 43 44 45 46 47 48 49 50

000
FPUS83 KFGF 062210
OPUFGF
PRAIRIE TO PINES WEATHER ROUNDUP
NATIONAL WEATHER SERVICE EASTERN NORTH DAKOTA/GRAND FORKS ND
400 PM CST TUE DEC 06 2016

 **SATELLITE DATA USED TO AUGMENT SKY COVER AT AUTOMATED STATIONS**
 *****  WEATHER ACROSS EASTERN NORTH DAKOTA  *****

CITY           SKY/WX    TMP DP  RH WIND       PRES   REMARKS
GRAND FORKS    HVY SNOW  23  20  88 NW30G38   29.49R VSB 1/4 WCI   5
GRAND FORKS AF NOT AVBL
GRAND CITY NWS   N/A     23 N/A N/A NW16        N/A  WCI  10
BUXTON         NOT AVBL
DEVILS LAKE    SNOW      14  10  85 NW36G41   29.64R VSB 1/4 WCI  -8
FARGO          SNOW      20  15  81 W33G46    29.57R VSB 1/2 WCI   0
WAHPETON ARPT  CLOUDY    19  14  79 W39       29.65R WCI  -2
$$

 *****  WEATHER ACROSS CENTRAL AND WESTERN NORTH DAKOTA  *****

CITY           SKY/WX    TMP DP  RH WIND       PRES   REMARKS
JAMESTOWN      SNOW      13  10  88 NW30G45   29.72R VSB 1/2 WCI  -8
BISMARCK       CLOUDY     8   6  92 NW23G37   29.93R BLWGSNOWWCI -13
MINOT          SNOW       8   3  80 W33G45    29.87R VSB 1/2 WCI -16
MINOT AFB      NOT AVBL
GARRISON         N/A      6   2  83 NW33G46   29.89R WCI -19
WILLISTON      CLOUDY     5  -3  69 NW21G26   30.07R WCI -16
DICKINSON      MIX PCPN   2  -4  76 NW31G39   29.95R VSB 1   WCI -24
HETTINGER      CLOUDY     6   0  76 NW28G33   29.98R HAZE    WCI -17
$$

 *****  OTHER OBSERVATIONS NORTHEAST NORTH DAKOTA  *****

CITY           SKY/WX    TMP DP  RH WIND       PRES   REMARKS
WALHALLA       LGT SNOW  23  23 100 NW35G44   29.53R VSB 3/4 WCI   4
LANGDON        HVY SNOW  18  16  93 NW35G45   29.54R VSB<1/4 WCI  -3
CAVALIER       FOG       23  19  86 NW31G44   29.50R VSB 1/4 WCI   5
GRAFTON        FOG       23  23 100 NW31G39   29.51R VSB 3/4 WCI   5
CANDO          LGT SNOW  16  14  93 NW29G35   29.69R WCI  -4
FORT TOTTEN      N/A     15  14  96 NW17      29.95S WCI  -1
ROLLA          HVY SNOW  12  12 100 NW38G49   29.67R VSB<1/4 WCI -11
RUGBY          HVY SNOW   9   9 100 NW35G43   29.76R VSB 1/4 WCI -15
 ***** THE ABOVE OBSERVATIONS ARE NON NWS ARE NOT QUALITY
        CONTROLLED AND MAY MIS-REPORT RAIN FOR SNOW...
$$

 *****  OTHER OBSERVATIONS SOUTHEAST NORTH DAKOTA *****

CITY           SKY/WX    TMP DP  RH WIND       PRES   REMARKS
COOPERSTOWN    SNOW      14  12  92 NW38G49   29.61R VSB<1/4 WCI  -9
VALLEY CITY    SNOW      14  14 100 W35G45    29.68R VSB 1/2 WCI  -8
OAKES          NOT AVBL
GWINNER        NOT AVBL
SHEYENNE NWR     N/A     17  10  75 NW28      29.95S WCI  -2
BUFFALO        NOT AVBL
WYNDMERE       NOT AVBL
 ***** THE ABOVE OBSERVATIONS ARE NON NWS ARE NOT QUALITY
       CONTROLLED AND MAY MIS-REPORT RAIN FOR SNOW...
$$

  *****  WEATHER ACROSS NORTHERN MINNESOTA  *****

CITY           SKY/WX    TMP DP  RH WIND       PRES   REMARKS
FLAG ISLAND    LGT SNOW  23  19  86 CALM      29.39R
WARROAD        LGT SNOW  23  19  86 NW3       29.41R
ROSEAU         LGT SNOW  23  18  80 N5        29.41R WCI  17
HALLOCK        LGT SNOW  25  21  86 NW3       29.44R VSB 1
THF RVR FALLS  FLURRIES  22  19  89 NW12      29.44R WCI  10
HALSTAD          N/A     21  19  93 NW37        N/A  WCI   1
FOSSTON        LGT SNOW  19  18  93 W15G23    29.41R WCI   5
BAUDETTE       LGT SNOW  22  18  85 NE5       29.38R FOG     WCI  16
WASKISH        LGT SNOW  23  19  86 NE6       29.34R WCI  16
CROOKSTON      LGT SNOW  25  23  93 NW28G38   29.46R VSB 3/4 WCI   8
$$
  *****  WEATHER ACROSS CENTRAL AND WEST MINNESOTA  *****

CITY           SKY/WX    TMP DP  RH WIND       PRES   REMARKS
BEMIDJI        FLURRIES  25  23  91 W14       29.31R WCI  13
PARK RAPIDS    HVY SNOW  21  16  81 W24       29.39R VSB 1/4 WCI   4
WADENA         SNOW      18  16  93 W26G39    29.48R VSB 1/2 WCI  -1
DETROIT LAKES  LGT SNOW  21  19  93 W28G39    29.48R VSB 3/4 WCI   3
MOORHEAD       MIX PCPN  18  16  93 W36G43    29.57R VSB 1/2 WCI  -3
FERGUS FALLS   SNOW      18  16  93 W32G38    29.65R VSB 1/2 WCI  -3
ELBOW LAKE     SNOW      17  15  93 NW30G43   29.64R VSB 1/2 WCI  -3
MORRIS MN      LGT SNOW  19  12  73 W33G47    29.68R WCI   0
STAPLES        LGT SNOW  18  16  93 W21G26    29.50R WCI   1
WHEATON        LGT SNOW  19  16  86 W26G40    29.72R WCI   1
$$
  *****  WEATHER ELSEWHERE ACROSS MINNESOTA  *****

CITY           SKY/WX    TMP DP  RH WIND       PRES   REMARKS
DULUTH         LGT SNOW  21  16  81 SW15G24   29.47F WCI   8
INTRNTL FALLS  SNOW      20  17  88 SE8       29.38F VSB 1/2 WCI  10
ELY            FLURRIES  19  12  73 S13       29.44S WCI   7
CLOQUET        LGT SNOW  21  16  79 S15G22    29.48S WCI   8
BRAINERD       LGT SNOW  20  15  81 SW21G35   29.50R WCI   4
HIBBING        LGT SNOW  19  16  88 S9G17     29.40F FOG     WCI   8
ALEXANDRIA     SNOW      18  15  88 W28G37    29.60R VSB 1/4 WCI  -1
SAINT CLOUD    LGT SNOW  21  15  78 SW22G30   29.64R WCI   5
MINNEAPOLIS    FLURRIES  23  12  62 W17G36    29.72R WCI   9
$$

  *****  WEATHER ACROSS SOUTH DAKOTA  *****

CITY           SKY/WX    TMP DP  RH WIND       PRES   REMARKS
SIOUX FALLS    PTCLDY    21  11  65 W22G33    29.90R WCI   5
BROOKINGS      LGT SNOW  14   9  79 W30         N/A  WCI  -7
WATERTOWN      LGT SNOW  13   7  77 W23G35    29.80R WCI  -6
HURON          MOCLDY    15   6  67 W23G38    29.95R WCI  -3
SISSETON         N/A     17  10  74 NW30G46   29.72R WCI  -3
ABERDEEN       CLOUDY    14   3  61 W26G43    29.86R WCI  -6
MITCHELL       PTCLDY    20   9  62 W28G33    29.97R WCI   2
PIERRE         MIX PCPN  14   5  67 W25       30.01R WCI  -5
MOBRIDGE       CLOUDY    11   1  64 NW30G44   29.91R WCI -11
RAPID CITY     CLEAR     17   2  51 N20G26    29.97R WCI   1
$$

  *****  SOME WEATHER IN NEARBY STATES *****

CITY           SKY/WX    TMP DP  RH WIND       PRES   REMARKS
GLASGOW MT     PTCLDY     4  -6  63 NW29G37   30.15R WCI -20
GREAT FALLS MT CLOUDY     1  -6  71 N8        30.15R WCI -12
CHEYENNE WY    CLOUDY    21  -9  26 S13       29.80S WCI   9
SCOTTSBLUFF NE CLOUDY    25   0  33 NW5       29.92S WCI  19
OMAHA NE       CLEAR     33  10  38 NW17      30.00R WCI  22
DES MOINES IA  PTCLDY    33  14  45 W17       29.95R WCI  22
DAVENPORT IA   PTCLDY    32  23  69 W21       29.91R WCI  20
CHICAGO IL     PTCLDY    35  30  82 W15       29.80R
EAU CLAIRE WI  CLOUDY    22  15  75 SW13      29.72R WCI  10
LA CROSSE WI   CLOUDY    27  17  66 SW15      29.81R WCI  15
$$

  *****  SOME NATIONAL WEATHER *****

CITY           SKY/WX    TMP DP  RH WIND       PRES   REMARKS
LA GUARDIA NY  CLOUDY    47  31  53 E12       29.97R
RALEIGH NC     LGT RAIN  45  43  93 VRB7      29.73R FOG
ATLANTA GA     MOCLDY    61  56  83 W8        29.80R
NEW ORLEANS LA FAIR      59  54  83 N5        29.94R
OKLAHOMA CITY  PTSUNNY   43  21  41 N12       30.06R
ALBUQUERQUE NM CLOUDY    47  17  30 N9        29.80S
SALT LAKE CITY FLURRIES  27  20  75 NE7       29.80R WCI  19
LOS ANGELES CA PTSUNNY   62  51  67 W12       29.95F
BOISE ID       CLOUDY    26  20  77 W3        29.95R
SEATTLE WA     MOSUNNY   40  28  62 N13       30.18S
$$

*** WEATHER ACROSS MANITOBA...SASKATCHEWAN AND ONTARIO ***
                ***ONTARIO***

CITY           SKY/WX    TMP DP  RH WIND       PRES   REMARKS
GERALDTON      DRIZZLE   34  32  93 E12G18    29.58F
THUNDER BAY    CLOUDY    32  30  93 SW9       29.49R WCI  24
SIOUX LOOKOUT  SNOW      28  27  93 SW7       29.37S VSB 1/2 WCI  21
TORONTO        CLOUDY    41  34  75 E16G25    29.81R
BIG TROUT LK   CLOUDY    19  18  93 E10G20    29.78R WCI   8
PICKLE LAKE    LGT SNOW  28  27  93 E16G26    29.45F VSB 3/4 WCI  17
DRYDEN         FLURRIES  25  21  86 S9        29.38R WCI  15
KENORA         FLURRIES  23  21  93 SE5       29.38R WCI  17
$$
                *** MANITOBA***

CITY           SKY/WX    TMP DP  RH WIND       PRES   REMARKS
BRANDON        FLURRIES  16  10  79 NW18G31   29.74R WCI  -1
DAUPHIN        FLURRIES  19  16  86 NW16G26   29.80R WCI   5
ISLAND LAKE    NOT AVBL
PILOT MOUND      N/A     16  14  93 NW32G38     N/A  WCI  -5
THE PAS        FLURRIES  16  10  79 NW17G24   29.98R WCI   0
THOMPSON       FLURRIES  19  18  93 N8        29.96R WCI   9
WINNIPEG       LGT SNOW  28  27  93 N26G33    29.46R VSB 1   WCI  13
LYNN LAKE      LGT SNOW  16  14  93 NE12      30.03R WCI   3
CHURCHILL      FLURRIES  27  25  93 N23       30.00S WCI  12
GILLAM         FLURRIES  19  18  93 N10       29.95F WCI   8
$$
                ***SASKATCHEWAN***

CITY           SKY/WX    TMP DP  RH WIND       PRES   REMARKS
ESTEVAN        SNOW       3   0  85 NW31G38   29.99R VSB 3/8 WCI -22
KINDERSLEY     PTCLDY    -2  -8  78 NW17      30.19S WCI -24
LLOYDMINSTER   CLOUDY     0  -8  71 NW21G26   30.22R WCI -23
PRINCE ALBERT  PTCLDY     7  -2  66 NW12G18   30.11R WCI  -9
REGINA         CLOUDY     3  -2  78 NW23G30   30.07R BLWGSNOWWCI -19
YORKTON        LGT SNOW   9   3  78 NW24G31   29.93S WCC1F1C2F2C3F3C4F4C5F5C6F6C7F7C8F8C9F9CaFaCbFbCcFcCdFdCe!



USA.gov is the U.S. government's official web portal to all federal, state and local government web resources and services.